Theta_e
319 318 318 318 318 318 318 318 319 319 319 319 319 319 320 320 321 321 321 321 320 320 319 319 318 318 318 318 318 318 318 318 318 316 316 318 327 336 333 330 333 336 340 344 345 343 339 340 338 341 339 338 335 333 341 344 346 344 332 326 325 328 325 329 328 328 331 332 338 338 340 340 336 341 342 345 343 343 341 340 342 345 344 347 349 348 347 348
318 318 318 318 318 318 318 319 319 319 319 319 319 319 320 320 320 321 321 321 320 320 319 319 318 318 318 318 318 318 318 318 315 316 316 321 327 328 329 336 338 338 343 338 341 339 336 335 337 338 335 330 339 331 339 337 345 338 334 331 326 328 331 333 332 333 332 332 337 340 341 339 338 339 341 339 339 339 338 339 341 341 343 346 346 346 346 346
318 318 318 318 318 318 318 319 319 319 319 319 319 319 320 320 320 320 320 320 321 320 319 319 318 318 318 317 317 318 318 316 316 316 324 336 334 331 331 333 342 340 341 337 339 339 337 336 338 335 334 329 333 328 335 334 340 338 333 327 328 333 334 335 334 334 334 333 335 338 339 339 340 340 343 339 337 339 336 336 339 338 337 341 342 344 344 345
318 318 318 318 318 318 318 319 318 319 319 319 319 320 320 320 320 320 320 320 320 320 319 318 318 318 318 317 317 320 318 315 314 317 325 343 341 337 333 334 343 339 341 340 339 337 338 339 339 334 331 327 329 331 327 333 331 336 333 328 332 336 331 334 335 335 334 336 335 337 340 338 340 341 340 340 336 337 339 341 339 338 339 341 342 342 343 344
317 317 318 318 317 318 318 318 318 319 319 319 319 320 320 320 320 320 320 320 320 319 318 318 318 318 318 319 317 321 316 310 310 318 326 342 350 346 336 335 344 336 340 338 336 335 335 336 335 330 329 321 327 325 328 331 335 337 332 333 335 334 331 337 336 337 336 337 336 337 335 336 343 342 338 339 334 333 338 342 343 342 343 341 340 341 343 342
318 317 317 317 317 317 318 318 318 318 319 319 319 319 319 319 319 319 319 319 319 319 318 318 318 318 318 319 320 319 312 299 310 320 336 344 352 349 338 338 343 335 338 335 330 331 332 333 329 324 323 320 322 318 323 329 336 326 333 333 337 337 334 336 336 340 337 335 334 333 337 341 338 338 340 340 337 339 343 345 345 345 345 345 344 343 341 341
317 317 317 317 317 317 317 317 317 318 318 319 319 319 318 318 318 318 318 318 319 319 318 318 318 318 319 318 320 317 314 307 314 321 333 347 347 347 340 341 346 337 342 335 331 330 331 329 324 321 320 317 321 319 322 324 333 330 327 335 335 336 334 337 336 337 336 335 334 337 340 336 337 333 340 338 341 342 344 345 346 346 346 345 342 343 342 342
317 317 317 317 317 317 317 317 317 318 318 318 319 318 318 318 318 318 318 319 319 319 319 318 319 318 319 320 317 311 310 307 318 322 332 345 343 341 338 334 337 337 336 333 330 327 328 324 319 321 316 314 316 318 323 323 327 325 323 329 334 335 336 337 337 336 335 334 337 336 334 334 336 336 339 337 341 342 344 346 346 346 346 344 343 342 342 342
317 317 317 317 316 316 317 317 318 318 318 318 318 317 317 317 318 318 318 319 319 319 320 319 318 320 320 319 314 306 306 314 318 321 323 336 335 334 329 328 335 334 332 329 328 326 325 321 320 320 312 313 317 317 322 318 314 324 324 328 332 332 334 336 335 334 334 334 334 332 332 335 336 338 335 338 341 344 346 345 345 345 344 343 342 343 341 342
316 316 316 316 316 316 316 317 317 318 318 317 317 316 316 317 317 318 318 319 320 320 320 320 320 321 319 317 311 305 311 320 322 321 323 334 333 329 329 329 333 333 328 326 327 325 322 322 320 320 318 315 317 314 319 317 318 327 325 324 325 330 333 335 333 334 334 332 332 330 330 332 336 334 329 337 342 344 345 344 345 344 343 343 342 342 342 341
316 316 316 316 316 316 316 317 317 317 317 317 316 316 316 317 317 317 319 320 320 319 321 320 321 320 320 316 307 304 316 321 320 321 325 335 332 328 331 328 331 331 328 326 325 326 325 324 322 322 318 312 315 314 314 317 319 321 327 326 326 326 329 331 333 333 334 331 333 331 328 331 334 333 331 336 342 344 343 343 344 344 343 343 343 343 344 343
316 315 315 315 315 316 316 317 317 317 316 316 315 316 316 316 316 318 320 321 320 321 320 321 321 323 319 313 310 311 319 319 322 321 324 334 330 330 334 331 330 330 327 324 325 326 327 324 322 319 308 316 310 313 314 319 320 320 322 317 320 323 324 328 328 330 332 329 332 332 327 325 329 328 334 340 343 344 343 343 343 343 343 344 344 343 344 343
316 316 315 315 315 316 316 316 316 316 315 315 315 315 315 316 317 319 320 320 320 321 321 322 323 323 318 312 312 319 322 324 323 318 321 329 329 331 334 331 329 329 328 326 323 327 327 325 323 317 315 314 311 308 318 320 318 317 316 316 317 319 320 326 329 329 329 330 331 330 316 321 325 329 335 342 342 342 342 342 342 343 344 344 343 343 343 343
316 315 315 314 315 315 316 316 316 315 314 314 314 313 314 316 318 322 322 322 322 322 322 322 324 321 317 309 312 318 320 322 323 317 314 326 328 328 331 329 331 331 331 326 326 327 326 326 323 320 318 314 313 322 315 316 318 311 313 315 312 313 315 325 327 329 326 331 330 330 318 323 326 327 336 341 339 340 340 341 342 343 343 343 343 343 342 343
315 315 315 315 315 316 315 315 314 313 314 314 312 313 315 315 321 323 322 323 322 323 324 323 324 319 316 310 316 318 327 324 320 312 314 316 324 324 327 327 326 327 327 327 325 327 327 324 321 315 311 316 317 313 309 310 314 314 309 306 311 311 315 323 328 328 324 328 330 328 319 322 323 330 337 341 340 340 340 341 342 342 342 343 343 342 342 343
314 314 314 314 315 315 315 314 313 313 314 313 311 313 316 320 323 324 324 327 325 324 324 322 320 320 315 304 309 324 324 309 309 312 315 314 314 323 326 324 324 323 325 323 326 325 323 321 316 315 314 315 311 308 307 307 308 311 308 307 307 310 313 319 325 329 329 329 328 327 320 323 323 329 335 341 340 340 339 340 341 342 342 342 342 343 343 342
314 314 314 314 315 315 315 313 313 313 312 311 311 313 318 323 324 325 325 325 326 326 322 320 320 318 305 309 316 309 306 310 312 312 311 314 312 326 323 320 318 318 320 321 322 322 319 316 316 315 315 311 309 308 304 303 304 305 309 307 309 308 311 312 322 327 329 328 324 327 321 323 326 328 335 339 338 338 337 339 341 342 343 343 342 342 342 342
314 313 314 314 314 314 314 313 313 312 311 310 310 315 319 325 325 325 324 325 327 325 324 323 319 313 304 310 302 304 310 309 310 310 312 314 314 325 321 317 317 317 316 314 318 315 317 312 314 308 310 309 308 304 301 299 303 303 305 305 306 310 312 312 317 324 327 327 324 326 323 324 325 328 332 335 336 338 337 338 341 342 343 343 342 342 342 342
314 313 313 314 313 314 313 313 312 311 310 310 313 318 318 323 326 325 316 318 319 316 313 305 305 300 297 302 307 308 309 310 311 312 312 312 318 326 321 320 318 314 309 309 311 313 314 311 312 307 303 304 305 304 303 305 307 306 307 307 307 307 310 311 319 325 325 323 322 324 321 322 325 326 330 334 337 337 337 339 341 342 343 343 343 342 343 343
313 313 313 313 313 313 312 312 311 310 309 313 317 318 317 310 313 309 310 308 303 302 302 303 305 304 305 305 305 309 312 313 308 311 314 315 324 321 318 316 314 313 309 304 307 310 314 305 304 303 304 306 306 307 307 308 309 309 309 309 307 308 311 314 316 323 324 322 322 323 324 324 323 325 328 334 336 336 336 337 339 341 342 342 342 342 343 344
312 312 313 312 312 312 312 311 310 309 308 314 313 310 302 302 300 300 303 304 304 304 303 304 304 303 302 305 307 307 304 307 310 310 312 319 324 319 313 313 309 306 308 308 306 311 312 304 305 307 307 308 308 308 308 306 307 307 308 309 308 309 308 313 314 320 323 319 320 323 323 323 326 327 327 331 332 333 334 336 338 339 341 343 343 343 344 346
312 312 312 312 312 311 311 310 309 309 307 318 312 306 307 307 308 311 306 300 303 305 305 305 305 304 307 306 307 307 306 304 306 309 314 315 319 315 313 311 307 304 308 308 307 305 303 301 305 309 310 310 309 308 307 305 304 306 306 307 306 308 311 314 315 319 320 319 317 321 320 321 324 326 329 330 332 334 335 336 339 341 341 343 343 344 345 345
312 312 312 312 311 310 310 309 309 304 317 312 308 308 306 311 315 315 310 303 301 305 305 304 303 303 303 307 308 309 303 302 302 307 309 313 314 313 314 310 307 306 306 306 303 302 299 302 307 310 309 307 307 308 307 306 306 305 303 303 303 308 307 306 313 316 318 317 317 320 317 319 323 326 327 329 331 335 336 337 339 342 342 342 343 344 345 345
312 312 312 311 311 310 309 308 306 314 314 311 309 308 312 315 315 313 305 300 298 302 305 304 304 303 302 301 306 305 303 303 305 304 311 310 311 310 313 311 309 306 304 305 304 303 302 306 309 308 308 307 305 306 305 304 302 303 302 302 304 307 309 310 311 314 316 317 318 318 317 316 319 319 321 326 331 332 333 335 338 341 343 344 346 346 347 345
312 312 312 311 310 309 308 307 311 311 312 312 309 312 314 315 317 315 304 302 299 300 307 305 305 304 304 309 309 304 304 304 305 308 310 310 306 307 309 314 311 306 306 305 305 303 303 308 308 307 306 306 305 303 303 303 301 302 303 303 305 308 308 310 311 310 310 309 314 314 308 310 318 319 320 324 327 328 332 333 335 339 341 343 343 344 346 347
312 311 312 311 311 308 307 311 311 312 311 307 309 313 315 315 317 316 305 297 294 298 302 296 305 299 307 303 306 305 305 301 307 309 311 310 312 307 307 308 311 306 308 307 304 304 304 308 307 305 304 304 303 303 304 305 302 301 302 305 305 308 310 310 310 310 306 304 312 316 307 306 316 316 319 322 324 327 330 332 335 338 341 342 343 344 345 345
312 311 311 311 310 307 313 308 313 313 307 307 313 314 314 314 320 312 299 295 292 298 297 301 302 300 306 303 305 305 294 298 307 309 309 312 308 312 303 304 309 310 312 311 306 301 306 306 306 306 304 303 302 300 304 305 302 300 306 307 305 304 306 309 309 309 308 313 315 315 313 307 308 315 321 323 322 324 328 330 334 336 340 340 342 343 346 346
312 311 310 309 308 307 312 312 312 308 307 311 314 314 315 317 317 312 298 288 287 300 295 299 300 307 305 304 305 302 301 304 300 305 310 311 311 308 304 303 305 306 309 309 298 306 307 304 305 303 303 303 302 304 306 306 303 303 307 307 306 305 304 306 308 308 309 308 305 310 313 307 307 314 321 322 319 321 324 328 333 336 339 341 342 342 345 346
311 311 310 309 307 306 313 312 311 307 311 314 314 314 313 318 312 301 295 286 298 297 304 297 307 303 303 305 301 302 302 304 298 305 309 311 312 308 303 304 305 305 308 308 302 306 309 308 307 306 304 301 305 307 307 306 302 306 308 309 309 308 306 305 304 305 307 306 302 307 311 305 305 312 315 319 319 319 322 325 330 335 337 340 340 342 344 346
311 311 309 308 309 315 316 316 311 313 314 314 314 314 313 310 304 294 289 284 299 291 298 299 300 296 301 298 298 300 299 301 303 305 308 306 307 309 307 308 304 303 303 308 307 307 310 314 313 308 305 306 307 308 308 307 307 309 307 306 307 306 305 305 304 304 304 299 302 308 310 309 302 310 312 313 315 320 322 326 330 334 336 339 342 342 343 344
310 309 309 307 312 311 313 310 311 313 314 316 315 312 309 304 296 292 286 291 297 295 299 297 295 300 297 295 295 298 298 299 301 303 303 306 305 306 306 303 307 303 302 303 304 306 307 309 308 310 312 310 310 307 310 310 309 307 304 303 303 303 306 304 302 303 296 295 304 308 308 310 301 307 314 318 321 321 321 323 327 330 334 338 341 341 342 344
308 307 308 310 313 314 307 306 311 314 315 315 313 307 302 293 297 288 288 297 289 293 294 294 297 296 296 297 295 296 295 298 300 301 300 302 302 301 301 299 302 295 295 297 298 305 303 304 309 310 314 310 308 305 306 308 308 306 304 303 297 296 299 295 298 294 294 294 302 307 308 305 305 311 315 318 319 321 324 323 325 328 331 337 340 342 343 344
307 307 305 312 312 313 312 313 315 315 314 313 309 306 296 291 287 294 293 295 290 296 293 297 295 295 295 296 294 295 297 293 298 300 300 301 301 300 301 300 300 299 294 299 298 298 300 305 306 307 309 312 310 302 302 302 305 304 301 300 296 294 295 291 295 298 298 301 304 305 308 302 308 311 317 317 320 323 324 326 326 328 330 335 339 342 342 343
307 307 313 315 312 312 313 316 315 314 311 312 307 301 295 288 289 296 294 294 293 296 296 294 295 296 295 293 293 295 294 296 295 297 299 298 300 299 300 301 300 299 299 299 297 297 294 295 301 304 302 311 309 307 307 305 305 304 306 303 299 299 297 293 296 293 295 299 303 306 301 300 301 305 315 318 320 323 324 325 327 328 330 334 338 341 342 343
306 311 315 315 314 315 313 314 315 313 310 308 302 297 290 290 295 292 293 294 295 295 293 296 294 293 293 293 295 296 294 293 296 295 297 297 297 298 298 298 300 299 300 294 299 299 297 298 305 308 308 310 307 310 311 308 306 307 306 307 301 299 306 299 302 300 300 299 299 302 300 306 306 315 317 319 319 320 322 324 326 326 327 330 333 336 338 340
309 315 313 313 311 312 314 314 314 312 309 305 298 294 291 293 291 294 293 296 295 293 293 294 294 292 292 293 294 293 297 293 295 294 295 295 298 297 299 299 297 298 297 295 300 295 298 295 304 306 307 309 309 311 310 311 299 305 305 299 302 308 305 301 302 303 303 301 299 307 304 306 311 312 315 316 317 318 320 320 321 322 325 329 329 332 335 339
313 313 310 312 310 312 314 314 313 311 308 303 297 292 295 295 296 295 296 294 294 295 293 289 292 290 290 290 292 293 294 296 294 293 292 295 294 297 297 298 299 298 298 297 297 301 294 297 304 303 302 308 311 312 312 311 311 308 301 304 309 310 308 303 295 299 297 295 298 303 300 302 302 299 311 313 313 315 317 319 320 323 323 324 326 330 333 337
311 310 309 309 310 313 314 315 312 311 306 301 295 294 297 294 298 297 298 296 296 295 292 291 292 292 290 290 291 291 294 291 293 292 291 294 291 299 297 297 300 298 298 300 296 298 299 292 298 303 304 307 309 309 308 311 313 307 307 313 303 298 297 303 301 294 294 293 296 299 301 301 304 304 310 308 309 311 314 317 319 320 322 324 326 329 332 335
313 309 306 309 313 314 314 316 312 308 303 298 296 293 295 296 298 297 298 297 296 295 292 292 291 293 292 290 291 292 293 289 292 292 290 293 289 297 297 297 297 299 299 299 297 299 299 292 296 304 303 306 307 306 299 303 309 312 312 309 312 307 303 300 301 303 302 296 297 297 300 299 306 307 309 311 312 312 312 315 315 318 321 323 327 329 331 335
308 306 304 311 313 314 316 314 309 305 301 295 296 295 299 295 297 299 300 298 295 294 293 292 293 291 292 292 292 290 293 291 292 292 291 293 291 298 296 299 296 297 298 299 297 300 295 301 291 300 305 304 298 303 301 304 302 303 304 304 307 307 310 308 307 302 299 298 298 298 296 301 308 312 311 312 315 316 315 315 317 319 321 323 326 328 331 335
310 305 305 312 312 314 313 309 303 299 297 298 299 297 298 296 298 298 299 299 298 299 296 294 294 291 293 291 292 294 291 293 292 291 292 292 292 291 297 296 297 295 298 298 297 298 296 297 292 297 298 298 300 306 306 306 306 305 304 302 305 303 301 298 297 306 304 300 296 298 297 306 311 314 313 313 315 316 318 319 319 321 321 325 327 329 331 335
307 301 302 312 313 312 308 300 299 302 299 296 295 298 296 300 298 297 298 299 298 296 299 296 295 294 294 293 293 293 292 292 293 292 293 291 295 293 297 298 297 297 296 295 297 302 299 299 297 294 297 299 302 306 308 308 306 305 306 304 307 306 306 302 294 300 304 304 305 304 300 304 315 315 316 315 315 315 316 317 318 321 324 324 326 328 331 337
305 301 309 312 313 310 305 298 301 299 296 297 301 299 300 298 297 298 297 298 296 297 296 295 295 294 294 294 294 293 294 291 293 291 293 294 294 296 298 297 299 297 297 296 298 299 301 295 293 294 299 301 304 306 307 307 305 303 305 308 307 304 305 304 304 306 303 304 301 301 298 304 314 319 317 316 319 317 320 317 318 317 319 323 326 328 331 337
305 304 306 311 313 311 302 294 294 296 296 298 298 297 299 298 298 296 297 297 297 296 295 295 296 297 294 296 295 292 295 288 293 292 292 295 293 299 298 297 298 297 295 297 295 301 293 297 294 292 292 295 297 301 303 306 305 303 304 306 307 307 307 306 305 307 302 304 304 301 295 302 312 318 319 317 316 316 317 318 319 319 321 323 325 326 328 338
304 307 306 307 310 307 298 299 297 296 295 295 295 294 295 296 298 298 297 296 299 297 296 294 296 296 295 296 293 294 294 292 289 295 293 294 294 299 298 297 299 297 298 300 299 301 295 295 294 288 286 286 287 287 291 296 299 303 305 306 305 305 305 305 301 304 297 305 306 303 302 309 315 318 317 318 317 317 318 318 319 320 321 321 322 328 336 338
302 299 303 305 306 304 303 304 301 297 295 295 294 294 295 294 297 298 299 297 298 298 297 296 297 298 296 295 293 293 292 295 292 291 293 291 294 296 298 298 298 298 299 299 300 299 295 296 295 292 292 291 294 296 298 300 299 298 301 302 303 304 306 306 306 302 299 304 303 306 307 309 311 313 315 316 317 315 315 318 318 319 321 323 327 328 329 337
306 299 298 295 303 302 299 301 299 299 295 297 292 294 292 293 294 296 298 294 298 297 296 297 296 293 293 294 292 291 293 293 295 293 293 293 295 296 298 298 298 299 299 298 300 298 295 292 293 295 295 296 298 299 299 298 295 297 298 299 302 302 303 303 301 301 308 303 298 307 310 306 309 314 315 315 316 317 317 319 320 321 322 323 326 333 336 329
298 299 301 301 295 292 296 295 298 297 297 298 294 295 292 291 292 290 295 298 298 299 293 295 297 296 296 294 294 290 292 292 293 291 295 295 295 297 296 298 297 299 299 298 300 296 293 289 294 294 294 295 297 297 298 298 298 298 298 299 299 301 302 301 303 305 308 303 300 308 311 308 311 313 314 316 319 321 321 325 324 322 322 326 329 326 324 323
304 302 301 303 296 297 297 297 298 297 295 296 294 294 292 291 290 293 293 294 296 295 296 290 293 295 295 296 295 292 293 289 289 294 294 294 293 294 292 295 298 299 298 297 298 299 295 290 292 293 292 294 295 296 297 296 297 298 298 299 300 300 301 302 303 305 306 305 308 310 310 309 312 314 316 318 324 323 323 326 326 325 329 335 333 333 329 325
298 298 297 302 301 299 299 298 296 295 294 295 292 292 293 292 291 293 295 294 291 293 298 294 294 296 294 294 295 293 294 294 293 291 295 295 294 295 294 295 294 298 298 295 295 297 293 291 293 293 292 292 294 296 297 296 296 295 297 298 299 300 301 302 302 303 305 305 306 307 308 309 313 321 326 328 327 325 322 321 326 331 333 334 334 331 330 333
306 307 305 299 297 298 298 297 296 295 293 294 292 294 293 293 292 294 294 297 295 293 295 293 295 295 296 296 296 295 298 297 297 296 297 296 291 296 293 295 297 294 296 295 296 295 294 290 294 292 288 288 293 294 295 297 297 296 296 297 298 299 298 300 301 304 304 304 306 307 305 306 312 325 326 327 326 326 324 326 329 334 336 338 339 336 338 342
308 308 308 303 295 298 295 297 297 296 291 295 295 294 293 293 294 295 293 297 298 298 297 296 296 295 294 294 294 295 298 298 298 299 300 300 300 300 300 298 298 295 294 294 297 293 293 291 289 289 286 287 292 295 296 296 295 293 294 297 300 300 302 303 305 308 312 313 307 304 306 319 320 322 321 324 327 328 326 328 336 339 341 339 339 340 341 342
Wind_Speed
21 21 20 20 20 20 19 19 18 19 18 19 18 18 18 17 18 19 17 15 14 14 12 12 10 9 8 8 7 7 7 8 4 7 10 13 4 3 7 1 9 15 12 13 14 16 15 14 13 12 10 8 8 8 8 9 5 5 4 6 5 1 1 4 5 6 2 4 8 11 12 10 11 10 7 8 6 6 9 6 7 5 4 7 11 19 21 22
21 21 21 20 21 20 20 20 19 19 19 18 18 18 18 17 17 18 18 16 14 13 12 10 10 8 8 7 6 6 8 6 8 9 15 0 7 10 8 7 8 16 15 16 19 18 18 16 14 13 10 8 6 7 9 5 8 7 5 6 4 1 4 2 5 5 4 5 7 9 11 9 9 11 10 9 10 11 10 9 8 9 9 11 15 19 22 23
21 21 21 21 21 21 21 20 20 19 18 17 17 18 18 17 17 17 17 16 14 12 11 10 8 7 6 6 5 5 7 7 8 8 2 11 12 11 10 11 10 18 17 18 19 19 18 18 16 15 10 8 7 7 8 6 8 9 7 5 5 1 2 3 3 3 3 1 6 8 10 9 10 9 10 8 11 11 10 10 11 10 13 14 16 19 21 22
21 21 21 21 21 21 21 21 20 19 18 17 17 17 17 17 17 16 16 16 14 11 9 9 8 6 5 5 4 6 6 6 4 7 8 3 12 13 13 13 13 18 16 15 17 16 12 13 15 15 10 10 8 7 9 7 7 6 8 7 2 1 4 3 2 2 3 3 4 7 8 9 10 7 9 7 10 9 8 11 11 13 15 17 17 20 21 22
22 21 21 21 21 21 21 21 21 19 18 17 17 16 16 17 17 17 16 14 13 11 8 7 7 6 7 3 4 7 6 6 6 2 13 13 8 12 15 16 15 18 15 13 14 14 13 15 14 13 9 9 8 9 10 10 9 3 9 9 2 2 2 3 4 4 5 4 4 7 9 8 8 8 9 9 8 6 8 9 9 14 17 19 20 21 21 22
22 22 22 22 22 21 21 21 21 20 18 16 16 16 16 16 16 17 15 13 12 10 7 6 4 6 7 6 8 6 5 1 3 7 14 16 6 12 18 17 17 18 15 14 15 15 15 15 15 12 10 10 10 10 10 11 10 8 9 10 7 5 4 3 4 1 4 2 3 6 7 5 9 7 9 9 8 7 3 9 10 14 18 19 21 21 22 22
22 22 23 22 22 23 22 21 21 19 17 16 16 15 16 16 15 15 14 11 10 8 6 5 6 6 4 6 7 7 7 4 3 10 15 11 2 15 18 17 19 17 14 16 16 15 17 16 16 13 11 11 10 11 5 11 11 11 7 2 6 6 8 5 5 3 2 2 2 1 6 7 9 9 8 10 8 4 5 9 12 14 17 19 20 22 23 23
22 22 23 22 23 23 23 22 21 20 18 16 16 16 15 15 16 15 14 11 9 7 5 4 6 8 6 6 6 6 7 3 5 10 14 6 5 14 17 16 20 17 16 18 17 18 18 18 18 13 11 10 7 12 6 8 11 12 12 11 8 7 7 6 5 6 3 3 3 4 7 7 9 5 8 10 10 5 8 10 14 16 17 18 20 21 22 22
23 23 23 23 23 23 23 23 21 20 19 17 16 17 16 15 15 14 12 11 8 5 6 6 7 7 10 7 7 9 4 6 5 9 12 5 8 13 18 16 19 18 17 17 17 16 17 16 16 14 9 13 6 10 9 8 10 14 15 9 6 7 6 6 6 6 6 1 3 6 7 6 8 6 8 8 10 8 11 12 15 16 18 18 20 21 21 22
26 25 24 24 24 24 24 22 21 21 19 18 17 17 17 16 14 13 12 9 6 5 7 8 8 8 7 6 6 6 6 5 4 7 9 3 8 13 15 13 20 17 16 17 16 17 18 13 18 15 6 9 7 9 9 12 1 3 10 14 14 11 9 8 9 7 5 5 5 6 6 7 8 8 6 10 10 11 13 15 16 17 17 17 18 19 20 22
24 24 24 24 24 24 24 22 22 21 19 18 18 17 16 15 13 11 10 7 4 4 6 8 8 9 6 6 6 1 1 2 5 6 7 2 8 13 11 11 18 16 17 16 17 17 16 11 14 6 5 7 8 10 11 9 13 8 4 6 11 13 13 12 12 11 8 8 11 10 8 6 8 8 4 11 12 14 15 16 16 16 16 16 18 19 18 18
25 24 25 25 25 25 23 23 22 21 19 18 17 16 16 15 12 9 7 3 2 6 6 7 11 6 6 6 4 6 1 3 3 5 4 5 5 6 9 6 16 14 15 15 16 16 15 11 12 11 5 3 7 4 12 11 8 9 9 10 9 9 11 13 13 12 10 7 7 5 7 7 7 9 9 9 13 15 15 15 17 16 15 16 17 17 16 17
25 25 26 27 27 25 24 24 23 22 19 16 16 16 15 11 9 7 2 2 4 5 8 8 9 5 6 6 6 4 0 1 2 3 3 2 3 3 6 7 14 13 12 12 15 14 14 9 13 14 8 5 3 6 7 6 11 10 11 10 10 11 12 13 12 12 11 8 8 7 8 4 8 13 10 12 13 16 14 15 15 13 14 14 16 16 16 17
25 25 26 26 27 26 25 24 24 23 18 16 16 15 12 9 6 3 1 2 6 5 7 10 6 5 6 3 4 4 2 2 2 4 4 3 4 6 6 10 8 7 9 11 10 10 11 8 12 13 5 8 4 3 9 4 7 11 10 9 10 9 10 13 14 14 13 10 9 8 9 8 11 15 10 15 16 15 15 15 15 14 14 14 15 15 16 18
25 25 25 26 26 25 25 24 23 24 20 15 17 15 10 7 4 3 5 6 4 6 7 7 4 5 6 6 2 4 1 6 4 4 2 3 4 7 8 12 11 7 5 7 8 7 6 8 10 12 10 10 7 5 8 7 7 9 8 12 11 11 7 11 12 15 15 11 12 10 9 6 7 8 13 15 14 15 15 15 16 15 15 16 15 16 16 17
25 25 26 28 26 25 24 23 23 23 21 16 16 13 8 5 3 4 2 3 6 8 6 6 4 5 8 3 4 5 5 7 6 5 1 3 4 4 9 13 11 8 9 7 4 5 7 8 10 9 8 7 10 9 8 8 8 9 11 10 13 12 10 9 13 13 16 10 13 13 5 5 9 10 9 12 13 16 14 15 16 17 17 16 15 15 15 16
25 24 25 25 25 24 24 22 22 21 22 17 17 9 5 2 4 3 4 10 7 6 3 2 2 2 2 3 4 3 10 7 6 1 1 3 6 7 12 14 11 11 10 8 7 8 9 11 8 7 11 8 9 10 9 10 10 11 11 12 11 14 13 11 11 15 15 12 11 15 13 5 3 5 11 10 16 18 14 16 17 16 15 16 14 15 16 17
26 25 25 25 25 25 23 23 21 21 21 18 13 6 1 4 4 6 6 6 2 3 3 4 4 3 5 5 5 10 9 7 6 4 0 3 6 10 13 11 12 12 11 11 10 12 10 10 10 10 9 11 11 12 13 13 12 11 12 13 13 12 14 13 11 12 15 16 13 13 15 10 5 6 8 15 19 16 15 15 17 17 17 17 15 16 17 16
27 26 25 25 25 25 24 22 21 20 20 18 11 6 2 4 6 6 5 4 5 5 5 3 3 3 5 10 6 8 8 8 7 6 5 6 8 9 10 8 13 15 11 11 10 15 10 9 9 10 13 15 16 16 14 7 8 14 14 12 12 12 12 13 11 7 14 15 15 15 11 14 15 12 13 18 18 15 14 14 14 15 16 17 16 16 16 16
27 26 25 24 23 24 25 21 20 19 17 14 3 5 5 1 5 4 1 2 6 5 5 5 1 3 5 5 9 11 10 6 1 6 4 6 9 12 11 10 13 11 11 10 13 15 10 14 14 17 15 15 15 15 14 11 1 7 10 12 13 12 11 13 13 9 10 13 15 16 16 12 13 13 11 10 13 15 14 14 14 15 16 17 17 17 17 18
27 27 26 24 24 23 24 22 21 18 17 9 8 6 6 8 6 4 10 4 4 4 4 2 4 5 6 7 6 12 8 2 4 7 5 6 7 12 11 12 12 12 12 10 11 10 12 14 16 16 15 13 14 15 14 14 9 8 7 9 10 12 11 11 14 12 7 10 11 13 15 16 17 16 18 19 18 16 15 15 16 17 18 17 19 18 18 16
26 27 26 27 25 25 23 22 19 17 18 8 8 7 6 7 3 5 5 2 3 2 3 1 2 3 1 3 1 8 6 4 6 7 8 7 9 11 11 11 13 12 12 11 10 11 13 16 16 15 13 10 10 14 15 15 13 10 9 8 10 11 10 10 10 5 6 10 11 12 14 14 15 16 16 14 15 12 14 15 17 18 18 16 17 18 17 16
27 26 27 26 27 26 24 22 20 13 7 7 8 8 6 5 5 3 6 6 6 3 2 1 1 6 6 2 3 10 6 2 3 6 5 7 9 10 8 11 12 11 13 15 13 11 12 14 17 13 13 13 10 10 13 13 11 11 12 11 10 9 10 11 12 7 11 8 10 13 13 11 12 14 15 13 13 13 14 16 17 17 18 18 18 18 17 18
27 27 26 28 27 26 22 24 18 9 3 5 7 8 4 5 5 3 6 5 2 6 1 4 4 5 7 6 5 9 5 3 6 5 4 5 7 2 8 13 12 12 12 17 16 13 12 5 13 14 13 15 14 13 14 12 12 14 15 13 11 10 11 10 4 11 9 13 14 13 11 12 11 14 14 14 13 13 13 15 16 16 16 16 15 16 17 20
27 27 27 26 27 26 26 20 6 7 4 5 5 6 7 5 5 5 6 4 5 4 2 4 2 4 7 4 4 7 2 3 4 2 4 5 1 5 9 7 8 12 11 15 16 15 15 10 1 13 12 14 15 14 15 12 12 12 17 17 14 11 11 11 9 4 9 12 13 14 12 14 13 16 17 12 13 14 13 14 16 16 15 15 16 18 18 18
26 27 26 24 26 26 26 7 5 8 7 3 7 10 7 5 3 4 6 5 3 6 7 4 3 3 4 3 9 3 4 2 4 3 5 4 5 8 1 7 7 10 14 13 14 11 12 11 7 11 13 15 16 15 14 15 12 11 11 18 19 15 9 9 10 8 9 11 12 18 16 13 12 17 17 15 14 16 14 15 16 16 15 16 16 16 17 18
24 26 24 23 23 22 10 2 8 9 5 4 11 10 7 5 1 6 5 5 6 4 1 5 5 6 5 7 9 3 7 5 4 2 4 3 5 2 8 7 8 8 6 7 6 12 11 14 12 12 14 15 15 15 14 15 13 12 5 11 18 20 17 12 11 11 10 9 12 11 13 14 12 13 17 18 18 16 16 16 15 15 17 17 17 17 18 18
25 25 22 22 21 13 5 6 8 5 6 9 11 10 7 3 2 5 5 5 2 3 2 3 5 2 6 6 5 7 7 8 7 6 5 3 6 7 8 9 7 10 10 9 15 6 14 16 14 14 14 12 13 12 13 16 14 9 5 7 10 17 20 18 13 11 11 10 13 12 13 13 13 11 13 16 18 17 16 15 16 16 18 18 18 18 19 19
22 23 23 21 21 16 6 5 5 6 8 9 10 9 5 2 7 4 5 7 5 2 1 3 0 3 7 4 4 6 3 4 8 7 6 4 3 6 7 8 10 10 11 15 13 9 8 14 15 14 12 13 11 10 12 14 14 15 5 2 8 10 14 18 15 13 12 13 17 15 15 12 13 12 13 12 14 16 17 17 16 17 18 18 17 18 19 18
24 23 22 19 15 5 3 4 5 5 9 9 9 7 1 5 5 6 5 6 3 4 3 3 3 5 7 2 4 6 4 5 5 7 3 3 2 6 6 5 7 9 11 14 16 14 8 11 13 13 15 13 11 11 10 12 14 9 12 9 9 10 10 12 14 13 11 18 18 17 17 15 13 13 14 15 14 14 13 13 14 16 17 17 17 18 17 17
25 25 22 17 5 4 5 5 2 10 8 8 9 5 4 4 6 5 7 5 2 6 4 5 5 2 6 6 2 6 2 4 6 7 1 5 7 4 2 6 5 8 9 11 13 16 18 10 7 9 10 10 13 13 12 11 11 13 11 11 9 10 8 10 11 13 15 17 14 18 18 17 17 12 13 13 12 16 18 16 16 16 16 16 16 16 17 18
25 24 22 11 5 5 6 7 11 9 8 9 9 5 6 7 6 8 1 4 6 6 2 5 5 4 5 1 3 5 5 1 6 4 4 4 2 1 3 5 1 7 10 11 11 13 15 17 11 11 10 13 13 14 12 13 13 12 11 11 12 10 9 11 11 15 18 15 11 16 18 17 23 14 9 14 15 12 15 16 15 16 16 16 17 17 16 17
25 22 21 10 5 4 4 8 8 7 9 9 7 5 7 6 7 2 3 2 2 5 6 2 5 5 5 5 5 6 1 5 5 2 5 1 4 5 5 7 6 7 7 6 11 11 11 15 18 16 11 15 15 14 12 14 15 15 14 13 13 12 12 11 13 10 10 14 16 13 15 19 13 14 20 17 9 10 13 16 15 14 14 15 16 16 16 17
26 20 8 2 5 6 7 8 7 8 10 5 7 5 7 7 4 6 3 3 6 3 4 2 1 2 5 3 5 8 2 6 5 4 4 1 5 4 6 6 10 5 8 8 7 9 11 11 16 17 14 15 18 17 13 10 13 16 13 14 13 12 10 12 10 14 13 8 13 19 14 13 15 12 12 16 19 14 11 12 13 12 11 13 14 15 17 17
27 18 7 7 7 6 8 9 7 7 6 6 7 7 7 6 2 1 2 4 4 2 2 1 3 5 3 3 4 5 6 1 5 5 1 4 2 1 3 4 8 8 5 7 8 8 12 10 4 15 9 16 18 18 16 14 12 14 14 12 14 16 9 10 6 9 9 10 10 15 13 3 9 1 4 10 15 18 16 14 12 13 12 13 13 14 15 16
17 1 3 3 5 9 10 6 5 5 6 6 7 6 5 5 3 3 3 4 1 3 2 5 3 5 2 2 4 2 6 7 5 6 2 2 3 1 4 4 6 9 7 6 6 7 7 11 7 2 3 13 16 16 16 12 11 12 14 17 15 11 13 11 12 12 9 8 12 7 11 13 7 8 10 9 8 12 17 19 19 20 18 15 14 14 15 15
6 6 4 5 9 12 10 7 3 4 6 7 6 4 5 4 6 3 4 5 5 5 4 6 4 3 3 2 1 3 4 6 2 4 2 2 4 3 3 5 5 6 8 7 5 2 7 6 7 3 11 7 5 7 15 18 14 8 15 13 12 14 13 11 11 9 12 13 9 10 13 11 13 12 15 18 16 15 12 13 16 17 19 20 17 16 14 15
8 4 4 8 14 13 9 6 4 5 6 6 1 7 1 3 3 5 3 3 4 3 6 4 1 2 3 3 1 5 5 7 4 2 5 1 1 4 2 2 5 7 7 6 6 4 5 10 10 8 8 7 6 7 12 14 18 16 11 11 15 14 16 13 9 14 13 14 10 12 14 14 13 10 5 16 22 20 20 18 16 15 16 17 17 18 18 18
7 6 2 13 15 13 10 7 7 7 5 3 4 5 4 5 4 5 4 3 2 4 6 2 7 3 4 4 5 2 3 5 6 3 5 4 5 6 3 5 3 6 6 7 6 5 4 8 7 8 11 6 7 11 15 15 18 20 17 15 14 13 13 13 13 10 8 11 9 11 14 11 12 11 11 6 13 19 18 18 20 19 17 15 14 15 17 17
5 5 3 14 16 13 10 9 6 2 3 1 2 5 2 5 4 6 4 5 1 4 2 3 2 5 4 5 5 6 3 6 5 4 4 3 3 7 2 4 6 7 8 6 7 4 6 4 10 6 8 3 11 11 14 14 15 16 18 16 11 13 11 12 11 14 12 11 10 8 10 10 10 9 12 10 6 9 15 16 15 16 17 17 16 15 15 16
3 4 5 14 17 13 11 4 2 4 4 5 6 7 5 5 4 5 5 4 1 1 7 1 3 3 6 4 6 3 5 5 4 6 4 2 3 4 7 6 6 8 8 6 7 4 5 6 10 10 10 12 11 13 17 18 13 14 18 18 18 15 16 17 18 12 14 11 8 8 9 2 4 7 11 11 10 9 8 9 12 14 15 14 15 16 15 15
7 2 6 15 16 13 9 3 5 2 3 4 5 4 4 4 1 5 3 3 4 1 2 3 0 5 4 5 5 4 6 6 6 6 3 8 7 7 7 5 6 7 6 4 5 4 5 7 9 11 9 10 13 2 7 7 8 9 9 17 21 18 16 15 13 13 12 14 12 10 8 8 5 6 4 8 10 13 13 13 11 9 11 14 15 15 15 16
5 6 4 13 14 10 4 7 4 5 6 5 4 4 1 3 4 3 4 4 2 2 3 3 4 6 2 5 5 7 6 7 7 7 4 2 4 3 5 6 6 6 6 3 4 1 4 7 8 11 11 15 22 17 11 9 9 9 12 8 12 21 19 16 13 8 11 13 14 11 12 7 4 4 3 3 2 3 3 6 9 12 13 14 14 14 15 15
3 5 4 11 16 8 3 5 5 6 6 6 4 6 4 6 6 2 3 5 5 1 2 2 1 4 4 4 6 9 5 7 2 5 6 3 3 7 5 4 4 4 4 5 5 7 6 5 8 9 9 9 12 14 15 7 7 13 12 13 10 8 7 6 4 2 8 12 14 11 13 8 9 5 5 7 9 8 7 7 7 8 7 7 8 13 14 14
4 3 3 7 11 12 8 6 5 5 5 6 5 5 3 3 6 6 4 5 3 3 4 2 3 5 6 7 8 8 8 8 8 6 7 3 4 3 3 3 2 5 2 7 7 6 6 7 4 9 13 12 12 15 15 14 16 12 16 15 4 11 14 9 14 10 7 7 12 12 11 6 1 6 6 8 10 11 9 7 6 5 4 6 6 4 5 8
5 4 5 5 5 8 9 5 6 5 5 4 5 5 4 3 3 5 7 3 6 2 3 2 3 3 4 5 5 4 5 5 7 4 4 6 5 2 2 5 3 6 5 6 8 6 5 7 9 10 11 12 6 11 8 7 7 11 15 11 10 10 9 11 13 18 17 12 13 12 11 7 11 10 8 8 7 8 8 8 7 5 5 5 4 6 8 8
3 5 6 5 2 8 7 7 7 5 5 4 2 4 4 4 3 4 5 2 4 4 2 3 3 3 2 5 3 5 6 6 4 7 8 7 4 5 4 4 5 6 3 6 6 5 5 9 12 14 18 18 17 15 13 13 12 12 9 7 7 8 8 13 16 18 14 13 19 15 15 14 11 5 3 3 4 5 8 6 3 1 1 2 3 3 4 6
2 3 4 3 3 5 6 7 6 6 6 4 5 1 4 3 4 3 1 2 2 1 3 4 1 1 2 3 4 5 3 7 8 6 4 5 7 6 7 5 8 3 5 7 2 6 7 9 11 13 17 19 20 17 15 13 12 12 12 11 9 8 9 12 16 20 14 14 16 14 1 6 12 9 4 3 11 10 10 11 11 7 6 2 1 2 5 6
5 4 5 1 1 4 6 5 5 5 7 5 4 5 4 4 4 3 4 4 3 1 2 2 1 2 3 4 4 5 5 7 3 4 6 8 9 9 8 6 5 4 6 6 4 4 6 9 11 12 16 16 19 21 17 17 15 15 14 14 13 12 12 12 12 13 14 9 10 8 7 10 12 11 10 12 12 13 12 10 10 8 6 5 5 5 6 6
4 3 4 4 5 5 4 4 4 3 5 4 1 5 3 4 4 4 2 3 4 2 2 3 3 4 4 5 6 7 5 7 9 11 8 9 10 8 7 7 7 6 5 6 5 5 6 7 8 9 10 14 16 18 17 17 16 17 16 16 17 15 14 14 12 13 13 13 12 14 14 13 10 7 10 11 13 13 14 13 11 9 8 8 8 8 8 7
3 4 2 1 3 4 3 3 3 3 4 4 3 5 4 4 5 4 4 2 5 5 3 4 4 7 6 6 7 9 8 9 10 12 12 12 12 8 8 4 4 5 5 5 4 6 7 8 8 10 11 11 12 15 17 16 17 18 19 18 17 17 16 13 13 11 13 13 11 13 14 13 13 8 10 9 10 12 14 15 13 9 10 10 10 10 10 8
2 2 3 3 2 2 2 3 3 1 5 4 4 5 4 4 3 4 3 3 2 1 3 5 6 8 7 7 7 7 8 10 12 13 12 13 14 14 13 14 13 11 9 8 6 7 7 7 8 8 10 11 10 12 12 13 12 16 19 18 17 17 14 12 13 11 10 9 13 12 12 0 6 9 9 9 10 11 12 11 12 13 12 11 11 12 12 12
Wind_Direction
343 342 340 338 338 337 336 333 331 329 326 329 326 322 320 318 315 313 312 313 315 312 307 303 303 299 290 292 293 288 297 270 258 233 232 249 277 188 161 197 189 199 211 185 165 166 169 178 186 171 193 180 207 223 192 211 202 201 214 226 239 297 241 46 14 23 42 122 138 165 175 166 156 160 150 160 168 153 152 146 131 104 94 87 112 138 147 150
342 341 339 338 336 334 333 332 329 327 329 330 325 320 318 317 315 311 309 311 312 311 305 304 298 295 291 283 280 289 269 255 254 248 240 79 187 228 229 215 180 197 202 179 170 176 170 178 179 175 186 195 168 215 181 198 196 217 228 245 271 128 64 347 33 12 332 82 138 172 183 179 158 168 152 175 167 161 164 146 150 129 118 114 134 141 150 154
342 341 339 336 335 334 332 329 329 325 327 326 320 321 317 314 311 309 309 308 308 309 304 299 294 290 282 273 264 248 262 251 252 245 222 225 216 217 216 206 193 196 205 176 178 178 180 174 170 178 184 198 170 199 193 193 199 227 261 248 235 51 63 325 336 349 358 317 164 166 180 202 144 176 161 195 165 174 174 157 158 151 137 135 140 150 153 158
342 341 337 336 335 333 331 329 326 326 324 322 325 320 316 311 308 308 306 307 305 307 304 294 286 281 280 262 231 234 251 274 219 78 41 153 206 202 202 198 196 197 212 192 181 184 180 172 171 188 176 217 173 221 189 193 210 188 236 248 15 72 238 77 45 34 24 359 168 170 166 196 156 178 183 179 174 185 194 170 170 158 146 145 152 153 159 162
341 340 338 336 335 334 332 327 326 323 323 322 321 318 315 309 308 307 305 304 305 304 300 289 276 263 250 254 229 237 255 254 103 40 10 338 310 195 194 193 194 189 203 190 185 188 182 174 176 196 205 207 187 196 217 200 222 245 230 246 304 208 207 100 92 43 45 26 159 164 175 189 156 179 199 190 199 172 191 178 173 152 148 150 155 158 163 165
341 340 339 337 335 334 332 329 324 323 321 322 319 318 313 312 308 305 303 301 304 304 294 273 253 246 242 205 229 231 251 302 57 29 345 338 316 175 182 185 188 189 193 185 188 183 180 178 182 194 206 225 199 207 196 220 200 245 215 238 248 254 284 173 161 113 311 43 146 171 177 166 181 189 204 202 213 61 99 151 154 150 152 155 156 160 166 168
340 339 338 337 336 334 332 330 324 321 322 321 319 316 314 311 307 300 301 307 299 296 276 240 230 233 199 188 233 254 250 312 139 16 354 350 302 164 173 175 181 188 184 179 183 179 182 180 193 195 205 220 220 218 190 206 205 243 260 191 226 236 240 222 246 277 269 217 143 185 151 198 189 206 186 208 212 112 130 140 140 150 153 154 159 164 168 169
340 340 338 337 336 334 332 328 326 324 322 320 318 316 315 310 303 301 304 306 300 281 264 236 214 211 176 220 232 235 231 45 49 4 359 34 131 155 161 171 177 180 183 184 178 184 179 188 193 193 215 213 201 216 179 215 209 230 242 248 251 241 241 237 238 231 238 232 198 189 197 200 191 216 167 205 202 137 143 139 145 151 155 161 160 166 168 171
340 340 339 338 336 334 332 328 325 323 322 322 320 317 313 306 298 305 313 305 296 276 236 202 200 209 215 276 269 285 114 40 3 349 3 35 116 151 163 164 185 181 187 188 189 187 185 193 197 198 207 214 200 221 196 219 219 224 245 256 245 239 236 232 232 229 228 253 191 208 205 200 198 199 219 193 190 156 145 151 151 155 158 164 165 168 167 173
341 340 338 338 336 335 331 328 323 323 322 321 318 317 311 306 308 311 308 303 289 241 206 201 196 174 206 250 268 262 72 314 319 360 11 45 138 157 182 174 179 186 186 189 188 193 196 185 201 191 254 241 204 221 209 217 274 73 245 248 258 257 252 235 244 242 248 220 213 237 206 200 187 199 200 196 171 156 156 155 156 160 163 165 166 170 170 173
340 338 336 335 336 335 331 327 325 322 322 322 317 312 304 307 315 309 305 300 246 188 195 191 192 204 231 254 272 348 37 283 8 14 25 136 148 173 186 184 186 188 192 185 193 197 198 201 201 177 242 236 198 224 219 219 253 259 304 277 255 256 254 253 247 248 234 231 216 229 233 233 178 202 238 155 164 163 165 161 161 165 166 165 168 170 171 176
340 340 339 337 336 334 332 327 325 322 322 321 316 307 308 312 312 310 301 276 196 184 166 180 187 223 263 261 257 24 11 27 12 15 59 138 146 197 195 206 193 199 195 189 198 196 202 204 194 188 196 112 217 230 228 230 241 254 260 267 258 245 242 228 229 221 211 222 194 198 245 209 204 224 212 155 160 170 168 165 165 166 166 166 168 169 173 176
338 339 339 338 337 334 332 329 325 322 322 322 319 311 314 314 313 304 311 167 153 161 175 171 200 252 267 221 61 49 27 31 14 334 64 158 148 180 198 205 199 208 212 208 197 196 201 206 203 204 227 232 199 216 33 212 225 246 246 258 270 255 242 224 218 218 206 211 200 202 226 224 193 215 203 157 167 170 169 168 167 167 167 168 170 171 177 180
338 339 339 339 337 334 332 330 326 322 322 326 323 319 319 312 310 322 156 25 136 152 172 189 230 235 252 62 135 93 255 287 265 257 32 171 177 143 177 187 185 216 224 228 212 198 200 216 213 225 222 239 209 63 247 195 213 225 231 239 250 247 229 205 209 199 209 185 197 206 237 172 195 204 187 164 174 174 172 170 171 168 168 169 173 173 181 184
337 337 337 335 337 335 332 330 327 323 323 330 325 324 315 309 319 111 123 127 134 145 170 195 223 244 227 106 134 147 237 251 236 3 328 191 148 149 163 174 182 196 193 214 201 190 197 212 213 221 218 223 278 270 221 228 200 220 218 220 223 238 228 203 200 199 208 178 194 205 238 206 221 155 174 163 182 179 173 173 172 171 173 171 174 180 182 187
338 337 338 338 336 335 332 330 327 321 319 328 324 318 308 287 169 125 246 68 142 161 176 219 201 252 285 116 69 146 214 340 353 345 49 242 196 166 147 164 174 194 193 184 179 179 193 198 209 210 217 186 228 230 223 214 213 212 227 218 216 214 227 203 196 205 207 191 193 203 249 187 189 161 185 180 190 182 177 175 176 174 176 174 176 181 183 184
338 337 338 335 336 335 333 331 325 318 317 322 322 297 265 166 148 174 154 155 168 198 235 308 303 264 320 66 221 306 358 1 346 353 194 218 221 144 152 152 168 171 182 172 188 184 182 201 197 222 233 235 206 217 222 215 209 208 209 233 223 216 212 226 188 202 200 219 200 195 227 235 168 158 169 197 198 186 184 180 179 177 177 179 176 180 183 190
337 337 336 337 336 337 334 331 325 319 314 318 307 304 253 157 154 169 158 207 182 233 240 274 303 259 157 50 6 349 339 356 3 5 321 141 194 157 157 162 159 162 165 167 183 190 174 202 188 215 195 219 210 206 215 209 206 201 201 215 223 227 224 222 203 183 208 202 229 197 217 222 156 168 186 199 213 195 189 184 181 179 179 181 181 185 188 188
339 337 337 338 337 336 334 330 325 320 316 310 281 239 255 238 210 252 282 178 222 190 204 96 298 306 23 358 358 347 334 334 290 276 117 157 173 154 156 155 163 163 168 175 165 196 173 209 191 219 211 202 207 208 212 220 218 216 213 219 225 219 213 224 206 173 208 207 216 219 203 222 210 189 190 209 209 197 196 186 182 182 182 183 185 186 188 191
339 336 337 337 339 337 333 329 326 319 321 325 246 216 206 237 201 169 264 342 32 14 351 332 298 272 271 355 355 342 295 276 267 68 113 155 165 153 152 164 165 189 176 193 156 204 171 204 198 207 211 205 207 213 219 221 339 277 243 231 227 232 230 216 227 185 195 231 223 223 221 197 235 233 205 237 214 201 198 186 185 187 187 189 189 189 188 189
339 336 336 338 340 338 333 330 327 317 312 293 337 33 44 6 347 19 337 331 25 18 333 5 340 339 346 323 340 349 352 120 37 76 92 179 181 162 149 169 167 190 195 190 165 172 195 216 217 215 215 209 208 209 218 234 219 243 247 236 231 227 233 215 217 207 196 229 228 227 234 223 211 212 212 195 216 203 197 193 193 192 192 190 191 190 189 186
339 337 335 338 338 337 333 328 323 316 297 261 22 50 65 47 347 336 295 245 117 22 309 322 331 301 63 332 357 333 286 268 108 65 102 204 181 215 150 195 181 195 183 191 169 177 206 218 220 215 214 218 220 211 212 221 224 227 244 236 239 226 233 243 223 188 216 225 236 229 231 232 224 218 220 201 200 203 200 199 196 194 194 192 193 191 185 182
340 336 336 335 336 334 330 324 320 310 316 17 30 31 42 358 318 300 260 280 265 137 250 7 245 10 22 113 11 324 281 357 40 59 42 277 179 260 173 202 190 203 183 196 192 187 209 224 227 217 208 214 210 210 204 212 225 227 227 238 233 230 221 215 221 199 224 234 238 232 244 248 235 229 228 217 202 203 205 204 201 198 196 194 192 189 186 184
340 336 335 334 332 330 324 323 301 276 342 355 29 37 7 338 314 243 223 272 324 157 211 55 332 9 21 348 13 322 303 65 284 54 31 303 202 94 221 208 196 210 199 200 210 210 213 204 216 216 210 205 200 194 202 210 220 222 234 234 234 225 224 247 229 208 224 229 243 257 247 242 231 228 225 222 208 209 205 206 206 203 204 200 192 190 190 186
338 337 335 332 329 327 321 319 298 7 329 245 51 20 351 335 299 246 257 238 205 162 142 184 281 58 355 253 284 299 52 225 10 37 2 318 129 198 224 211 230 212 208 197 215 229 230 212 16 210 196 202 213 214 213 218 227 221 221 233 237 233 237 225 243 246 219 227 214 224 244 242 222 223 227 211 203 210 205 205 205 201 200 197 197 197 193 192
337 335 333 329 327 327 312 301 39 340 306 26 360 350 341 325 294 233 252 265 216 117 193 154 275 67 303 45 338 12 282 243 39 37 325 13 303 287 10 223 215 217 204 203 216 231 235 214 195 188 190 207 217 226 211 213 231 229 215 214 233 242 241 242 242 234 241 236 204 207 236 247 223 223 221 216 214 210 202 208 203 198 197 195 199 196 193 192
333 334 329 328 324 330 310 63 346 298 332 12 343 336 327 315 285 210 242 212 222 77 163 51 252 71 295 8 326 254 225 85 347 112 336 51 285 112 261 214 188 257 244 197 209 221 217 224 188 198 206 211 215 220 212 210 225 232 225 208 218 229 235 237 245 242 256 261 262 219 231 251 243 223 221 220 214 207 205 201 203 197 198 199 199 197 195 194
329 331 327 323 318 322 302 313 310 348 12 323 323 319 325 315 189 216 253 260 126 139 99 101 19 320 291 345 335 358 21 336 256 105 342 27 253 203 233 253 226 214 204 197 223 182 199 215 212 201 209 218 220 219 213 209 223 234 220 230 222 224 228 234 240 245 245 251 245 214 211 243 244 238 218 213 221 205 210 209 201 201 198 201 200 199 197 196
324 323 326 322 315 300 259 272 306 324 345 323 317 320 322 135 211 249 272 275 92 107 84 123 77 242 350 206 42 13 355 24 323 12 330 231 228 292 228 246 258 259 215 215 237 207 189 228 215 213 211 221 220 217 221 209 219 226 261 236 241 237 230 229 233 237 239 241 240 230 216 236 241 224 227 204 223 212 211 213 207 205 201 198 200 200 199 195
326 324 326 327 312 214 216 232 243 332 327 323 315 318 277 191 218 225 211 225 79 125 357 18 286 354 330 346 98 31 13 11 347 322 282 315 84 210 255 330 275 251 244 216 237 252 234 193 235 216 216 225 219 217 219 220 225 241 227 237 222 222 226 222 230 233 240 241 237 231 229 234 250 225 219 218 210 218 212 205 207 204 204 199 200 200 198 194
328 328 326 328 305 14 298 246 21 340 328 313 310 289 226 221 253 271 243 55 234 86 204 54 50 265 14 12 13 42 72 14 4 342 269 198 185 213 263 214 213 245 242 238 230 229 240 218 209 219 216 221 233 230 212 223 219 225 227 219 234 232 219 220 218 217 235 240 234 232 233 228 245 230 229 226 213 216 221 214 204 205 202 200 198 201 199 195
327 326 323 320 300 308 309 326 327 318 313 310 302 259 230 243 195 249 54 125 253 89 8 61 60 12 5 5 29 16 359 105 17 6 342 356 358 296 32 309 43 222 219 221 226 211 228 228 219 215 196 223 206 226 214 208 213 219 222 211 216 210 197 212 201 214 221 235 225 228 229 236 236 244 244 229 220 215 219 219 210 205 203 199 198 199 199 197
324 322 313 282 239 252 284 309 309 310 306 293 291 254 240 256 259 179 136 209 93 351 111 330 40 9 348 255 44 359 109 7 7 37 311 254 275 94 51 21 353 296 285 203 227 211 224 224 219 222 212 200 218 209 204 207 205 210 211 205 210 208 199 211 212 227 236 226 230 234 224 244 258 246 226 241 240 222 213 218 220 213 206 200 198 198 198 198
320 319 300 204 244 278 293 294 300 309 301 280 259 242 237 255 244 40 339 31 65 102 73 35 41 83 14 8 29 348 192 92 353 14 297 273 246 200 146 70 7 323 256 280 256 218 226 199 217 208 211 185 209 218 217 221 198 210 209 213 216 222 206 209 213 215 224 238 204 214 235 237 227 236 228 225 229 228 223 218 212 217 212 205 203 197 199 198
314 301 260 259 246 255 302 312 304 296 283 252 234 245 246 243 18 49 128 73 92 82 103 53 271 299 139 136 68 70 354 23 49 324 268 274 166 299 6 29 23 347 303 270 237 261 252 261 42 199 228 190 207 209 224 225 217 203 204 216 225 221 229 242 218 232 224 219 219 195 216 180 217 356 196 224 215 219 217 217 217 211 216 213 205 201 200 199
299 316 264 282 335 339 325 323 310 275 250 224 240 232 242 14 54 17 44 333 327 280 77 252 237 248 278 151 137 44 115 307 31 292 173 241 47 329 65 26 20 20 354 280 342 257 218 239 93 80 132 199 203 205 206 223 219 183 199 210 221 221 237 247 264 266 291 269 237 199 209 233 258 243 214 204 216 211 210 218 221 222 216 214 211 206 202 199
339 305 212 339 355 341 334 321 317 251 223 237 239 230 50 89 18 8 36 331 12 336 263 296 126 331 351 334 310 29 23 289 181 325 200 126 184 85 54 75 21 18 12 338 285 326 309 261 99 208 203 202 277 237 210 210 246 226 202 211 212 232 244 239 245 230 230 235 227 213 223 218 212 241 212 212 212 213 212 206 211 215 217 216 215 212 207 202
316 311 272 355 356 341 332 324 276 236 235 228 159 58 6 81 60 29 21 291 213 208 286 253 103 278 265 295 290 22 19 301 74 281 286 176 28 63 40 346 80 6 352 353 290 47 336 271 256 228 251 177 207 215 225 230 222 250 258 181 209 192 213 217 243 233 224 224 235 223 224 234 219 221 148 204 210 211 213 216 218 213 212 214 215 215 211 206
272 273 185 10 349 346 325 313 269 257 241 213 132 170 70 79 41 32 30 326 318 314 269 77 315 118 322 278 337 308 348 305 16 290 287 136 240 76 45 341 11 356 340 326 271 289 263 268 270 178 207 179 221 209 223 208 214 233 256 257 212 230 216 213 214 249 248 249 226 225 216 228 219 235 233 217 208 211 210 211 216 218 213 209 210 212 208 206
308 247 89 360 349 338 322 293 262 233 263 125 89 62 91 77 34 40 36 311 108 282 322 335 178 293 164 337 333 318 67 304 306 323 278 64 297 84 15 70 346 339 337 311 282 292 279 268 267 197 188 197 219 205 225 214 204 203 221 229 237 225 225 230 218 221 231 240 238 240 217 219 224 222 230 218 212 202 208 211 211 214 217 208 208 211 209 205
306 279 64 357 343 332 303 270 40 58 93 88 68 83 66 43 36 61 34 12 319 337 332 313 300 271 345 304 229 107 299 265 281 278 263 228 243 188 88 5 351 338 325 277 235 220 273 239 241 260 214 216 235 214 225 233 237 228 208 221 220 220 213 216 224 216 227 232 237 230 236 227 151 196 208 216 213 209 206 218 203 205 214 209 207 210 209 202
311 343 15 344 339 324 294 120 69 31 61 74 67 22 70 322 71 33 34 42 2 23 134 287 61 305 274 265 309 302 280 287 269 275 225 277 102 298 81 359 346 329 321 310 313 0 329 308 268 245 252 243 225 161 312 306 289 289 270 219 211 229 222 221 228 219 221 230 239 241 259 228 114 120 163 201 212 217 220 222 228 218 209 206 209 212 206 202
15 30 4 345 344 320 305 86 91 76 74 82 162 104 122 98 2 30 341 358 261 350 288 305 353 290 212 315 306 289 290 278 281 259 317 267 279 17 34 343 333 304 304 250 235 119 281 248 242 248 268 275 278 279 277 284 295 283 233 262 226 214 217 226 235 253 249 215 212 221 233 233 216 152 199 143 172 265 249 224 228 228 223 218 211 212 206 201
332 10 23 13 354 322 329 60 76 80 87 106 81 90 63 41 6 39 15 33 353 313 316 316 225 6 3 351 299 288 321 288 162 266 233 167 263 73 333 326 351 311 346 24 300 30 283 200 242 266 249 222 245 248 236 231 284 244 238 216 227 245 249 251 311 289 251 235 229 214 230 212 229 222 182 241 253 231 220 229 231 236 248 273 239 211 211 202
291 209 57 44 24 26 57 14 58 88 85 65 70 57 61 102 31 13 352 25 3 1 274 286 317 307 294 294 287 287 286 285 294 264 298 296 284 73 346 339 312 301 338 17 330 321 281 278 291 238 228 226 208 211 216 212 217 222 237 227 229 234 230 228 235 228 247 238 258 241 225 218 172 157 211 219 233 245 251 252 241 226 237 246 244 254 247 211
359 1 359 54 40 71 72 51 37 65 85 101 90 46 35 52 82 56 322 70 0 324 5 322 322 276 344 313 281 273 264 249 263 303 300 274 274 245 76 308 288 284 347 330 301 282 270 277 258 258 268 262 321 348 341 332 322 231 204 225 225 225 244 246 242 232 230 228 237 235 268 249 213 192 195 212 224 237 231 225 226 227 234 218 219 223 209 209
337 36 0 15 357 41 58 36 54 40 63 327 64 357 45 22 6 101 357 318 35 347 43 18 28 313 7 313 334 298 286 294 287 285 285 297 297 292 280 259 265 260 282 277 256 278 259 261 250 254 259 266 278 284 304 307 287 289 291 255 240 219 223 227 223 228 235 246 237 222 228 247 248 234 145 185 217 230 245 249 270 266 45 3 84 153 230 228
29 69 48 355 354 23 22 41 29 62 60 49 84 315 38 8 22 12 99 92 344 3 277 149 237 76 309 328 311 283 309 304 279 274 309 286 297 294 295 257 252 206 208 263 235 248 269 261 265 262 256 264 271 273 279 286 281 281 276 277 264 233 222 226 228 234 216 227 233 219 221 281 245 251 303 356 2 331 337 342 338 327 288 244 202 286 276 254
46 79 56 277 104 46 49 48 35 56 61 45 84 22 44 29 34 36 325 318 296 201 327 292 305 323 295 291 285 291 297 293 278 310 299 314 304 311 292 290 236 212 230 242 222 229 256 258 270 262 269 265 272 275 267 261 262 260 254 255 259 256 244 234 235 234 229 234 245 281 266 274 273 269 299 316 324 323 324 327 314 320 357 355 314 283 269 262
48 21 82 66 80 75 54 59 53 61 65 16 31 43 9 12 11 357 341 300 291 230 265 256 287 290 284 259 248 263 287 288 293 290 297 300 294 277 291 288 287 261 258 260 259 214 244 254 265 282 289 274 268 268 265 255 254 257 255 252 252 253 249 239 238 232 236 242 237 242 259 266 255 329 339 324 317 317 311 305 319 336 340 342 330 312 307 310
52 46 359 353 115 66 71 51 63 58 62 49 40 30 355 31 3 353 307 308 283 286 240 282 312 300 281 266 258 262 275 280 274 274 284 280 280 292 290 285 280 278 242 252 241 238 229 262 278 279 276 272 267 267 259 257 254 254 255 250 246 242 238 229 227 222 224 222 217 224 234 237 250 340 327 333 308 299 299 306 312 327 340 338 328 319 318 315
34 10 343 320 66 315 37 99 55 207 58 44 4 32 352 12 344 354 309 86 315 268 279 288 304 301 292 274 271 287 299 291 288 288 287 282 275 273 263 260 258 262 269 257 247 254 233 249 261 264 266 269 278 267 259 255 264 254 243 241 237 238 244 240 229 225 240 247 224 219 223 188 342 342 331 329 329 306 293 300 321 327 331 326 320 317 314 310